Location: Newark
(46.7000°N, 60.6000°W)
Time: 13:12:47
(UTC+00:00)

A-11 Canister half - Pass Details

Date: 27 October 2020
Orbit: 1525 x 1684 km, 47.3° (Epoch: 01 December)

Event Time Altitude Azimuth Distance (km) Brightness Sun altitude
Rises 16:28:59 0° 185° (S) 4,809 12.8 29.4°
Reaches altitude 10° 16:33:16 10° 169° (S) 3,797 12.3 29.3°
Maximum altitude 16:39:28 19° 128° (SE) 3,080 11.1 29.0°
Drops below altitude 10° 16:45:32 10° 87° (E) 3,733 10.9 28.7°
Sets 16:49:40 0° 71° (ENE) 4,701 11.2 28.5°
